Tracking 19562 objects as of 24-Mar-2019
HD Live streaming from Space Station
objects crossing your sky now

COSMOS 339

Track COSMOS 339 now!
10-day predictions
COSMOS 339 is classified as:


NORAD ID: 4386
Int'l Code: 1970-036D
Perigee: 1,451.9 km
Apogee: 1,476.1 km
Inclination: 74.0 °
Period: 115.0 minutes
Semi major axis: 7834 km
RCS: 0.7395 m2 (medium)
Launch date: April 25, 1970
Source: Commonwealth of Independent States (former USSR) (CIS)
Launch site: PLESETSK MISSILE AND SPACE COMPLEX (PKMTR)
aabbcc
Your satellite tracking list
Your tracking list is empty




NASA's NSSDC Master Catalog

Two Line Element Set (TLE):
1  4386U 70036D   19082.45019951 -.00000028 +00000-0 -76481-4 0  9993
2  4386 074.0279 064.5598 0015503 181.8173 300.2018 12.51828054235192
Source of the keplerian elements: AFSPC